EW4271 Weather Reports


time (UTC)temp
F
wind
direction
speed
knots
gust
knots
rain 1hr
in
rain 24hr
in
rain mn
in
humidity
%
barometer
mb
20260902015120 65 55 0.0 0.0 0.00 0.05 0.04 68 1026.0
20260902014614 66 55 0.0 0.0 0.00 0.05 0.04 66 1025.9
20260902014108 66 55 0.0 0.0 0.00 0.05 0.04 65 1025.8
20260902013602 67 55 0.0 0.0 0.00 0.05 0.04 62 1025.8
20260902013116 68 55 0.0 0.0 0.00 0.06 0.04 62 1025.7
20260902012610 68 55 0.0 0.0 0.00 0.06 0.04 61 1025.7
20260902012104 68 55 0.0 0.0 0.00 0.06 0.04 59 1025.7
20260902011618 68 55 0.0 0.0 0.00 0.06 0.04 58 1025.7
20260902011116 69 55 0.0 0.0 0.00 0.06 0.04 57 1025.7
20260902010629 69 55 0.0 0.0 0.00 0.06 0.04 55 1025.7
20260902005616 70 55 0.0 0.0 0.00 0.06 0.04 57 1025.7
20260902005109 70 55 0.0 0.0 0.00 0.06 0.04 58 1025.7
20260902004603 70 55 0.0 0.0 0.00 0.06 0.04 58 1025.9
20260902004117 70 55 0.0 0.0 0.00 0.06 0.04 59 1025.9
20260902003610 70 55 0.0 0.0 0.00 0.06 0.04 58 1025.9
20260902003104 70 55 0.0 0.0 0.00 0.07 0.04 58 1026.0
20260902002601 70 55 0.0 1.7 0.00 0.07 0.04 57 1026.0
20260902002114 70 55 0.0 2.6 0.00 0.07 0.04 57 1026.0
20260902001608 70 55 0.9 2.6 0.00 0.07 0.04 56 1026.0
20260902001102 71 55 0.9 4.3 0.00 0.07 0.04 56 1026.1
20260902000616 71 55 1.7 4.3 0.00 0.07 0.04 55 1026.0
20260902000110 71 46 1.7 3.5 0.00 0.07 0.04 56 1025.9
20260901235602 72 142 0.0 0.9 0.00 0.07 0.04 56 1025.8
20260901235116 72 118 0.0 0.9 0.00 0.07 0.04 55 1025.8
20260901234614 72 133 0.0 2.6 0.00 0.07 0.04 56 1025.7
20260901234109 72 137 0.0 2.6 0.00 0.07 0.04 55 1025.7
20260901233602 73 142 1.7 2.6 0.00 0.07 0.04 53 1025.7
20260901233117 73 142 0.9 3.5 0.00 0.36 0.04 55 1025.7
20260901232611 74 142 0.9 3.5 0.00 0.36 0.04 55 1025.6
20260901232106 73 163 0.9 1.7 0.00 0.36 0.04 54 1025.7
20260901231620 73 137 0.0 2.6 0.00 0.36 0.04 56 1025.6
20260901231112 73 156 0.9 3.5 0.00 0.36 0.04 55 1025.7
20260901230610 73 144 0.9 3.5 0.00 0.36 0.04 56 1025.7
20260901230104 72 144 0.9 2.6 0.00 0.36 0.04 58 1025.7
20260901225619 72 30 0.0 2.6 0.00 0.36 0.04 59 1025.7
20260901225107 72 51 0.9 3.5 0.00 0.36 0.04 56 1025.8
20260901224620 72 38 1.7 3.5 0.00 0.36 0.04 56 1025.8
20260901224135 73 49 2.6 3.5 0.00 0.36 0.04 54 1025.9
20260901223609 73 190 0.0 3.5 0.00 0.36 0.04 55 1026.0
20260901223102 73 167 1.7 3.5 0.00 0.36 0.04 53 1025.9
20260901222617 74 89 0.0 1.7 0.00 0.36 0.04 52 1026.0
20260901222115 74 240 0.0 1.7 0.00 0.36 0.04 52 1026.0
20260901221629 74 240 0.9 1.7 0.00 0.36 0.04 48 1025.9
20260901221102 74 136 0.0 1.7 0.00 0.36 0.04 52 1026.0
20260901220616 74 136 0.9 2.6 0.00 0.36 0.04 47 1026.0
20260901220130 74 136 0.9 2.6 0.00 0.36 0.04 51 1026.1
20260901215603 74 154 0.9 1.7 0.00 0.36 0.04 52 1026.1
20260901215137 74 157 0.9 4.3 0.00 0.36 0.04 51 1026.2
20260901214610 75 157 0.9 5.2 0.00 0.36 0.04 48 1026.2
20260901214104 75 296 2.6 5.2 0.00 0.36 0.04 45 1026.2
20260901213602 75 49 1.7 4.3 0.01 0.36 0.04 48 1026.2
20260901213116 74 136 0.9 4.3 0.01 0.36 0.04 51 1026.3
20260901212630 72 154 0.9 5.2 0.01 0.36 0.04 56 1026.4
20260901212103 71 302 0.9 5.2 0.01 0.36 0.04 62 1026.5
20260901211617 69 295 0.0 1.7 0.01 0.36 0.04 65 1026.7
20260901211111 69 91 0.0 2.6 0.01 0.36 0.04 66 1026.7
20260901210604 68 91 0.9 3.5 0.02 0.36 0.04 70 1026.8
20260901210138 67 46 0.9 3.5 0.02 0.36 0.04 74 1026.9
20260901205611 66 208 0.9 2.6 0.02 0.36 0.04 74 1027.1
20260901205108 65 355 0.0 0.0 0.02 0.36 0.04 79 1027.2
20260901204603 65 355 0.0 0.0 0.02 0.36 0.04 77 1027.3
20260901204116 65 355 0.0 0.0 0.02 0.36 0.04 77 1027.4
20260901203609 66 355 0.0 0.0 0.01 0.35 0.03 75 1027.4
20260901203103 66 302 0.0 1.7 0.01 0.35 0.03 73 1027.7
20260901202618 67 336 0.0 6.1 0.01 0.35 0.03 68 1027.7
20260901202110 67 303 2.6 6.1 0.01 0.35 0.03 63 1027.6
20260901201608 69 29 0.0 4.3 0.01 0.35 0.03 63 1027.5
20260901201102 70 312 1.7 4.3 0.01 0.35 0.03 61 1027.5
20260901200615 72 344 1.7 4.3 0.00 0.34 0.02 60 1027.3
20260901200109 73 20 1.7 5.2 0.00 0.34 0.02 52 1027.2
20260901195603 73 302 1.7 5.2 0.00 0.34 0.02 52 1027.1
20260901195116 73 338 0.9 5.2 0.00 0.34 0.02 54 1027.2
20260901194610 73 153 0.9 7.0 0.00 0.34 0.02 56 1027.2
20260901194104 73 120 2.6 7.0 0.00 0.34 0.02 56 1027.3
20260901193603 72 154 2.6 6.1 0.00 0.34 0.02 57 1027.3
20260901193117 73 24 1.7 4.3 0.00 0.34 0.02 58 1027.4
20260901192610 73 192 0.0 7.0 0.00 0.34 0.02 56 1027.5
20260901192105 72 111 2.6 7.0 0.00 0.34 0.02 60 1027.6
20260901191639 72 54 1.7 3.5 0.00 0.34 0.02 61 1027.5
20260901191111 71 302 0.9 4.3 0.00 0.34 0.02 60 1027.7
20260901190606 71 153 1.7 6.1 0.00 0.34 0.02 63 1027.8
20260901190118 71 156 1.7 7.8 0.00 0.34 0.02 63 1027.9
20260901185614 70 132 3.5 7.8 0.00 0.34 0.02 67 1028.0
20260901185108 69 186 1.7 6.1 0.00 0.34 0.02 68 1028.0
20260901184605 69 175 0.9 7.0 0.00 0.34 0.02 69 1028.0
20260901184119 68 153 1.7 4.3 0.00 0.34 0.02 70 1028.1
20260901183633 68 160 0.0 5.2 0.00 0.34 0.02 71 1028.1
20260901183126 67 159 0.0 3.5 0.00 0.34 0.02 73 1028.3
20260901182619 67 160 0.9 3.5 0.00 0.34 0.02 74 1028.3
20260901182113 66 155 1.7 5.2 0.00 0.34 0.02 76 1028.3
20260901181607 66 144 1.7 5.2 0.00 0.34 0.02 77 1028.3
20260901181121 66 90 0.0 1.7 0.00 0.34 0.02 79 1028.3
20260901180615 65 90 0.0 0.9 0.00 0.34 0.02 78 1028.4
20260901180133 65 90 0.0 1.7 0.00 0.34 0.02 79 1028.4
20260901175607 65 90 0.9 1.7 0.00 0.34 0.02 77 1028.5
20260901175102 65 16 0.0 3.5 0.00 0.34 0.02 76 1028.7
20260901174615 65 142 0.9 3.5 0.00 0.34 0.02 77 1028.8
20260901174109 65 144 0.9 3.5 0.00 0.34 0.02 76 1028.9
20260901173603 65 144 0.9 3.5 0.00 0.34 0.02 75 1028.9
20260901173138 65 147 0.9 2.6 0.00 0.34 0.02 75 1028.8
20260901172610 65 193 0.0 2.6 0.00 0.34 0.02 74 1028.8
20260901172105 65 142 0.0 1.7 0.00 0.34 0.02 76 1028.7
20260901171601 65 142 0.0 2.6 0.00 0.34 0.02 76 1028.8
20260901171116 65 142 0.0 2.6 0.00 0.34 0.02 75 1028.7
20260901170629 65 130 0.9 2.6 0.00 0.34 0.02 76 1028.8
20260901165616 65 146 0.0 5.2 0.00 0.34 0.02 77 1028.8
20260901165110 65 149 0.9 5.2 0.00 0.34 0.02 80 1028.8
20260901164603 64 46 0.0 4.3 0.00 0.34 0.02 82 1028.7
20260901164137 64 157 0.9 4.3 0.00 0.34 0.02 84 1028.7
20260901163610 64 58 0.9 2.6 0.00 0.34 0.02 84 1028.7
20260901163108 63 198 0.0 1.7 0.00 0.34 0.02 86 1028.6
20260901162602 63 61 0.9 2.6 0.00 0.34 0.02 86 1028.6
20260901162115 63 34 0.9 4.3 0.00 0.34 0.02 85 1028.4
20260901161609 63 171 1.7 4.3 0.00 0.34 0.02 87 1028.5
20260901161103 62 112 0.0 1.7 0.00 0.34 0.02 88 1028.4
20260901160617 62 143 0.0 1.7 0.00 0.34 0.02 90 1028.3
20260901160131 61 138 0.0 1.7 0.00 0.34 0.02 88 1028.2
20260901155604 61 173 0.0 0.9 0.00 0.34 0.02 91 1028.2
20260901155140 61 173 0.0 0.0 0.00 0.34 0.02 92 1028.2
20260901154617 61 173 0.0 0.9 0.00 0.34 0.02 93 1028.2
20260901154112 60 173 0.0 1.7 0.00 0.34 0.02 93 1028.2
20260901153626 60 328 0.0 0.9 0.00 0.34 0.02 94 1028.3
20260901153119 60 328 0.0 0.0 0.00 0.34 0.02 94 1028.3
20260901152613 59 328 0.0 0.0 0.00 0.34 0.02 94 1028.3
20260901152107 59 328 0.0 0.0 0.00 0.34 0.02 94 1028.3
20260901151602 59 328 0.0 0.0 0.00 0.34 0.02 95 1028.2
20260901151115 59 328 0.0 0.0 0.00 0.34 0.02 95 1028.2
20260901150613 59 328 0.0 0.0 0.00 0.34 0.02 95 1028.2
20260901150107 59 328 0.0 0.0 0.00 0.34 0.02 95 1028.1
20260901145620 58 328 0.0 0.0 0.00 0.34 0.02 95 1028.3
20260901145114 59 328 0.0 0.0 0.00 0.34 0.02 95 1028.1
20260901144608 59 328 0.0 0.0 0.00 0.34 0.02 95 1028.1
20260901144102 58 328 0.0 0.0 0.00 0.34 0.02 95 1028.1
20260901143617 58 328 0.0 0.0 0.00 0.34 0.02 95 1028.1
20260901143111 58 328 0.0 0.0 0.00 0.34 0.02 95 1028.0
20260901142608 58 328 0.0 0.0 0.00 0.34 0.02 95 1027.9
20260901142104 58 328 0.0 0.0 0.00 0.34 0.02 95 1027.9
20260901141616 58 328 0.0 0.0 0.00 0.34 0.02 95 1027.9
20260901141110 58 328 0.0 0.0 0.00 0.34 0.02 95 1028.0
20260901140604 57 328 0.0 0.0 0.00 0.34 0.02 95 1028.0
20260901140140 57 328 0.0 0.0 0.00 0.34 0.02 95 1028.0
20260901135633 57 328 0.0 0.0 0.00 0.34 0.02 95 1028.0
20260901135106 57 328 0.0 0.0 0.00 0.34 0.02 95 1028.1
20260901134604 57 328 0.0 0.9 0.00 0.34 0.02 95 1028.2
20260901134118 57 328 0.0 0.9 0.00 0.34 0.02 95 1028.1
20260901133613 57 328 0.0 0.0 0.00 0.34 0.02 94 1028.0
20260901133107 57 328 0.0 0.0 0.00 0.34 0.02 94 1028.0
20260901132621 57 328 0.0 0.0 0.00 0.34 0.02 94 1028.0
20260901132135 57 328 0.0 0.0 0.00 0.34 0.02 95 1027.9
20260901131607 57 328 0.0 0.0 0.00 0.34 0.02 94 1027.8
20260901131101 57 328 0.0 0.0 0.00 0.34 0.02 94 1027.7
20260901130615 57 328 0.0 0.0 0.00 0.34 0.02 94 1027.5
20260901130113 57 328 0.0 0.0 0.00 0.34 0.02 94 1027.6
20260901125607 57 328 0.0 0.0 0.00 0.34 0.02 94 1027.7
20260901125102 57 328 0.0 0.0 0.01 0.34 0.02 94 1027.6
20260901124636 57 328 0.0 0.0 0.01 0.34 0.02 94 1027.6
20260901124108 57 328 0.0 0.0 0.01 0.34 0.02 94 1027.6
20260901123602 57 328 0.0 0.0 0.01 0.34 0.02 94 1027.5
20260901123116 57 328 0.0 0.0 0.01 0.34 0.02 94 1027.6
20260901122610 57 328 0.0 0.0 0.02 0.34 0.02 94 1027.7
20260901122108 57 328 0.0 0.0 0.02 0.34 0.02 94 1027.7
20260901121602 57 328 0.0 0.0 0.02 0.34 0.02 94 1027.7
20260901121116 57 328 0.0 0.0 0.02 0.34 0.02 94 1027.8
20260901120630 58 328 0.0 0.0 0.02 0.34 0.02 94 1027.8
20260901115618 58 328 0.0 0.0 0.02 0.34 0.02 94 1028.0
20260901115111 58 328 0.0 0.0 0.01 0.33 0.01 94 1028.1
20260901114605 58 328 0.0 0.0 0.01 0.33 0.01 94 1028.1
20260901114103 58 328 0.0 0.0 0.01 0.33 0.01 94 1028.1
20260901113617 58 328 0.0 0.0 0.01 0.33 0.01 94 1028.0
20260901113111 59 328 0.0 0.0 0.01 0.33 0.01 94 1028.1
20260901112604 59 328 0.0 0.0 0.00 0.32 0.00 94 1028.0
20260901112119 59 328 0.0 0.0 0.00 0.32 0.00 94 1027.9
20260901111612 59 328 0.0 0.0 0.00 0.32 0.00 94 1027.9
20260901111106 59 328 0.0 0.0 0.00 0.32 0.00 94 1028.0
20260901110605 59 328 0.0 0.0 0.00 0.32 0.00 94 1028.0
20260901110118 59 328 0.0 0.0 0.00 0.32 0.00 94 1027.9
20260901105611 59 328 0.0 0.0 0.00 0.32 0.00 94 1027.9
20260901105104 59 328 0.0 0.0 0.00 0.32 0.00 94 1027.8
20260901104618 59 328 0.0 0.0 0.00 0.32 0.00 94 1027.7
20260901104113 59 328 0.0 0.0 0.00 0.32 0.00 94 1027.7
20260901103607 59 328 0.0 0.0 0.00 0.32 0.00 94 1027.7
20260901103101 59 328 0.0 0.0 0.00 0.32 0.00 94 1027.8
20260901102615 59 328 0.0 0.0 0.00 0.32 0.00 94 1027.8
20260901102113 59 328 0.0 0.0 0.00 0.32 0.00 94 1027.7
20260901101608 59 328 0.0 0.0 0.00 0.32 0.00 94 1027.8
20260901101102 59 328 0.0 0.0 0.00 0.32 0.00 94 1027.9
20260901100615 59 328 0.0 0.0 0.00 0.32 0.00 94 1028.1
20260901100129 59 328 0.0 0.0 0.00 0.32 0.00 94 1028.1
20260901095602 59 328 0.0 0.0 0.00 0.32 0.00 94 1028.2
20260901095116 59 328 0.0 0.0 0.00 0.32 0.00 94 1028.1
20260901094610 59 328 0.0 0.0 0.00 0.32 0.00 94 1028.3
20260901094107 59 328 0.0 0.0 0.00 0.32 0.00 94 1028.3
20260901093602 59 328 0.0 0.0 0.00 0.32 0.00 94 1028.4
20260901093115 59 328 0.0 0.0 0.00 0.32 0.00 94 1028.5
20260901092630 58 328 0.0 0.0 0.00 0.32 0.00 94 1028.4
20260901092102 58 328 0.0 0.0 0.00 0.32 0.00 94 1028.5
20260901091615 58 328 0.0 0.9 0.00 0.32 0.00 94 1028.4
20260901091108 58 328 0.0 0.9 0.00 0.32 0.00 94 1028.4
20260901090602 58 319 0.0 0.0 0.00 0.32 0.00 93 1028.3
20260901090116 58 169 0.0 0.0 0.00 0.32 0.00 93 1028.3
20260901085630 58 169 0.0 0.0 0.00 0.32 0.00 93 1028.0
20260901085107 58 169 0.0 0.0 0.00 0.32 0.00 93 1027.8
20260901084603 58 169 0.0 0.0 0.00 0.32 0.00 93 1027.6
20260901084118 58 169 0.0 0.0 0.00 0.32 0.00 94 1027.6
20260901083612 58 169 0.0 0.0 0.00 0.32 0.00 94 1027.5
20260901083106 58 169 0.0 0.0 0.00 0.32 0.00 94 1027.5
20260901082620 58 169 0.0 0.0 0.00 0.32 0.00 94 1027.4
20260901082113 58 169 0.0 0.0 0.00 0.32 0.00 94 1027.3
20260901081613 58 169 0.0 0.0 0.00 0.32 0.00 93 1027.3
20260901081106 58 169 0.0 0.0 0.00 0.32 0.00 93 1027.4
20260901080620 58 169 0.0 0.0 0.00 0.32 0.00 94 1027.5
20260901080114 58 169 0.0 0.0 0.00 0.32 0.00 94 1027.6
20260901075608 58 169 0.0 0.0 0.00 0.32 0.00 94 1027.6
20260901075101 58 169 0.0 0.0 0.00 0.32 0.00 94 1027.6
20260901074615 58 169 0.0 0.0 0.00 0.32 0.00 94 1027.6
20260901074108 58 169 0.0 0.0 0.00 0.32 0.00 94 1027.6
20260901073623 58 169 0.0 0.0 0.00 0.32 0.00 94 1027.7
20260901073101 58 169 0.0 0.0 0.00 0.32 0.00 94 1027.7
20260901072614 58 169 0.0 0.0 0.00 0.32 0.00 94 1027.7
20260901072109 58 169 0.0 0.0 0.00 0.32 0.00 94 1027.8
20260901071603 58 169 0.0 0.0 0.00 0.32 0.00 94 1027.7
20260901071136 58 169 0.0 0.0 0.00 0.32 0.00 94 1027.7
20260901070610 58 169 0.0 0.0 0.00 0.32 0.00 93 1027.5
20260901070105 58 169 0.0 0.0 0.00 0.32 0.00 93 1027.6
20260901065618 58 169 0.0 0.0 0.01 0.32 0.00 93 1027.7
20260901065107 58 169 0.0 0.0 0.01 0.32 0.00 93 1027.6
20260901064605 58 169 0.0 0.0 0.01 0.32 0.00 93 1027.6
20260901064139 59 169 0.0 0.0 0.01 0.32 0.00 93 1027.5
20260901063611 59 169 0.0 0.0 0.01 0.32 0.00 93 1027.4
20260901063105 59 169 0.0 0.0 0.01 0.32 0.32 93 1027.4
20260901062618 59 169 0.0 0.0 0.01 0.32 0.32 93 1027.4
20260901062112 59 169 0.0 0.0 0.01 0.32 0.32 93 1027.4
20260901061607 59 169 0.0 0.0 0.01 0.32 0.32 93 1027.4
20260901061101 59 169 0.0 0.0 0.01 0.32 0.32 93 1027.4
20260901060619 59 169 0.0 0.0 0.01 0.32 0.32 93 1027.4
20260901060112 59 169 0.0 0.0 0.01 0.32 0.32 93 1027.5
20260901055627 59 169 0.0 0.0 0.00 0.31 0.31 93 1027.5
20260901055120 59 169 0.0 0.0 0.00 0.31 0.31 93 1027.6
20260901054635 59 169 0.0 0.0 0.00 0.31 0.31 93 1027.5
20260901054108 59 169 0.0 0.0 0.00 0.31 0.31 93 1027.6
20260901053603 59 169 0.0 0.0 0.00 0.31 0.31 93 1027.6
20260901053115 59 169 0.0 0.0 0.00 0.31 0.31 93 1027.6
20260901052609 60 169 0.0 0.0 0.00 0.31 0.31 93 1027.9
20260901052107 60 169 0.0 0.0 0.00 0.31 0.31 93 1027.9
20260901051621 60 169 0.0 0.0 0.00 0.31 0.31 93 1027.8
20260901051114 60 169 0.0 0.0 0.00 0.31 0.31 93 1027.5
20260901050608 60 169 0.0 0.0 0.00 0.31 0.31 93 1027.6
20260901050100 60 169 0.0 0.0 0.00 0.31 0.31 93 1027.9
20260901045635 60 169 0.0 0.0 0.00 0.31 0.31 93 1028.3
20260901045107 60 169 0.0 0.0 0.00 0.31 0.31 93 1028.2
20260901044637 60 169 0.0 0.0 0.00 0.31 0.31 93 1028.2
20260901044108 60 169 0.0 0.0 0.00 0.31 0.31 93 1028.1
20260901043607 60 169 0.0 0.0 0.00 0.31 0.31 93 1028.2
20260901043119 60 169 0.0 0.0 0.00 0.31 0.31 93 1028.2
20260901042634 60 169 0.0 0.0 0.00 0.31 0.31 93 1028.3
20260901042107 60 169 0.0 0.0 0.00 0.31 0.31 93 1028.3
20260901041601 60 169 0.0 0.0 0.00 0.31 0.31 93 1028.4
20260901041115 60 169 0.0 0.0 0.00 0.31 0.31 93 1028.5
20260901040610 60 169 0.0 0.0 0.00 0.31 0.31 93 1028.5
20260901040123 60 169 0.0 0.0 0.00 0.31 0.31 94 1028.5
20260901035616 60 169 0.0 0.0 0.00 0.31 0.31 93 1028.3
20260901035130 60 169 0.0 0.0 0.00 0.31 0.31 93 1028.5
20260901034607 60 169 0.0 0.0 0.00 0.31 0.31 93 1028.5
20260901034120 60 169 0.0 0.0 0.00 0.31 0.31 93 1028.5
20260901033633 60 169 0.0 0.0 0.00 0.31 0.31 93 1028.4
20260901033127 60 169 0.0 0.0 0.00 0.31 0.31 93 1028.3
20260901032601 60 169 0.0 0.0 0.00 0.31 0.31 93 1028.2
20260901032115 60 169 0.0 0.0 0.00 0.31 0.31 93 1028.1
20260901031629 60 169 0.0 0.0 0.00 0.31 0.31 92 1027.7
20260901031102 60 169 0.0 0.0 0.00 0.31 0.31 92 1027.6
20260901030617 60 169 0.0 0.0 0.00 0.31 0.31 92 1027.4
20260901030130 60 169 0.0 0.0 0.00 0.31 0.31 92 1027.4
20260901025606 60 169 0.0 0.0 0.00 0.31 0.31 92 1027.4
20260901025140 60 169 0.0 0.0 0.00 0.31 0.31 92 1027.3
20260901024612 60 169 0.0 0.0 0.00 0.31 0.31 92 1027.3
20260901024106 60 169 0.0 0.0 0.00 0.31 0.31 92 1027.4
20260901023600 60 169 0.0 0.0 0.00 0.31 0.31 92 1027.1
20260901023114 60 169 0.0 0.0 0.00 0.31 0.31 91 1027.1
20260901022609 61 169 0.0 0.0 0.00 0.31 0.31 91 1027.2
20260901022124 61 169 0.0 0.0 0.01 0.31 0.31 91 1027.4
20260901021601 61 169 0.0 0.0 0.01 0.31 0.31 91 1027.3
20260901021115 61 169 0.0 0.0 0.01 0.31 0.31 91 1027.4
20260901020629 61 169 0.0 0.0 0.01 0.31 0.31 90 1027.4
20260901020123 61 169 0.0 0.0 0.01 0.31 0.31 90 1027.4
20260901015616 61 169 0.0 0.0 0.01 0.31 0.31 90 1027.5